Meath Environmental Platform

Observations for Trim Patrick St

Time AQI Temp °C Hum % Pres Pa CO μg/m³ H₂S μg/m³ NO μg/m³ NO₂ μg/m³ O₃ μg/m³ SO₂ μg/m³ PM1 μg/m³ PM2.5 μg/m³ PM10 μg/m³
Saturday 1 August 2026
05:49 2 10.4 82 38,460 0.53 1.13 4.17 16.95 15.39 0 15.71 23.16 25.47
05:48 2 10.4 82 38,460 0.54 1.62 4.24 16.14 19.55 0 14.86 21.78 23.96
05:47 2 10.4 82 38,460 0.53 1.75 4.27 16.54 22.17 0 16.57 23.17 25.49
05:46 2 10.4 82 38,460 0.55 2.03 4.3 17.55 23.21 0 15.71 23.18 23.31
05:44 2 10.4 82 38,460 0.53 1.62 4.33 14.45 21.59 0 14.86 19.02 20.92
05:43 2 10.5 82 38,460 0.52 2.39 4.35 18.58 27.66 0 15.71 23.9 26.29
05:42 2 10.4 82 38,460 0.53 2.08 4.38 17.08 21.8 0 15.71 21.81 22
05:41 2 10.5 82 38,460 0.53 1.52 4.32 16.44 20.87 0 14.86 21.79 23.97
05:39 2 10.5 82 38,460 0.53 2.29 4.19 16.8 18.42 0 15.71 22.52 22.7
05:38 2 10.5 81 38,460 0.54 3.14 4.04 25.15 24.18 0 16.57 22.59 24.85
05:31 2 10.6 82 38,460 0.51 1.78 4.24 13.63 22.8 0 16.57 22.52 24.77
05:30 2 10.6 82 38,460 0.48 3.45 4.24 20.96 33.1 0 13.14 17.65 19.41
05:29 2 10.6 82 38,460 0.48 2.6 4.23 15.89 22.64 0 9.71 14.17 15.59
05:28 2 10.6 81 38,460 0.46 2.76 4.23 23.24 40.48 0 14.86 21.16 21.41
05:27 2 10.6 81 38,460 0.43 1.34 4.19 18.19 23.95 0 8.86 14.19 15.61
05:26 2 10.6 81 38,460 0.4 1.19 4.19 16.86 23.16 0 9.71 12.8 14.08
05:25 2 10.6 81 38,460 0.41 1.39 4.2 20.04 29.82 0 7.14 10.74 11.81
05:24 2 10.7 81 38,460 0.4 0.49 4.21 14.3 25.58 0 6.29 10.71 11.78
05:23 2 10.7 81 38,460 0.4 0.52 4.26 19.25 22.75 0 6.29 10.74 11.81
05:22 2 10.7 81 38,460 0.39 0.39 4.22 14.02 26.36 0 7.14 10.05 11.05